Regional Weather Roundup
Issued by NWS Wakefield, VA

Home | Current Version | Previous Version | Graphics & Text | Print | Product List | Glossary On
Versions: 1 2 3 4 5 6 7 8 9 10 11 12 13 14 15 16 17 18 19 20 21 22 23 24 25 26 27 28 29 30 31 32 33 34 35 36 37 38 39 40 41 42 43 44 45 46 47 48 49 50
000
ASUS41 KAKQ 171010
RWRAKQ

REGIONAL WEATHER ROUNDUP
NATIONAL WEATHER SERVICE WAKEFIELD VA
500 AM EST WED DEC 17 2014

Note: "fair" indicates few or no clouds below 12,000 feet with no
significant weather and/or obstructions to visibility. * = Denotes
station may not report precipitation (e.g., rain,snow,etc.),
thunder or fog.

VAZ042-051-052>054-056-171100-
NORTHERN VIRGINIA

CITY           SKY/WX    TMP DP  RH WIND       PRES   REMARKS
WASH NATIONAL  PTCLDY    43  37  79 SW7       29.94S
DULLES         CLEAR     36  35  96 SW5       29.93S
FORT BELVOIR   CLEAR     39  39 100 CALM      29.95R FOG
QUANTICO       FOG       42  40  92 W3        29.96S VSB 1
FREDERICKSBRG* FOG       42  42 100 CALM      29.95R VSB 1/4
STAFFORD*      FOG       41  41 100 CALM      29.99R VSB 1/4
WARRENTON      FOG       40  40 100 SW3       29.94S VSB 1/4
CULPEPER*      FOG       39  39 100 CALM      29.95S VSB<1/4
MANASSAS*      CLOUDY    37  37 100 CALM      29.95R VSB 1/4
LEESBURG*      CLEAR     46  41  81 NW14G28   29.93S
WINCHESTER     CLOUDY    46  32  57 W8        29.93S
FRONT ROYAL*   PTSUNNY   41  36  81 CALM      29.92S
LURAY*         CLOUDY    46  37  71 SW6       29.93S
$$

VAZ048-049-060>072-079>083-171100-
CENTRAL AND SOUTH CENTRAL VIRGINIA

CITY           SKY/WX    TMP DP  RH WIND       PRES   REMARKS
RICHMOND       CLEAR     43  38  82 W5        29.95S
CHESTERFIELD*  SUNNY     37  27  65 CALM      29.97R
PETERSBURG*    CLEAR     41  40  95 W5        29.96F
HANOVER        FOG       36  34  92 CALM      29.96S VSB 1/4
TAPPAHANNOCK*  FOG       44  42  89 CALM      29.95F VSB 3/4
QUINTON*       CLOUDY    36  36 100 MISG      29.95R VSB 1/2
CHARLOTTSVILLE PTCLDY    42  35  76 S5        29.94S
GORDONSVILLE*  SUNNY     30  30  99 CALM      29.94S FOG
ORANGE*        CLEAR     32  32 100 CALM      29.95F FOG
LOUISA*        CLEAR     34  34 100 SW3       29.93F FOG
BUMPASS*       SUNNY     33  33  99 CALM      29.94F
FARMVILLE*     CLEAR     43  40  91 SW5       29.96R
CREWE*         SUNNY     43  38  82 W6        29.97R
FORT PICKETT*  SUNNY     37  37  98 W5        29.97S
CHASE CITY*    SUNNY     40  40  99 CALM      29.99S
CLARKSVILLE*   SUNNY     41  37  87 SW6       30.00R
SOUTH HILL*    CLEAR     42  38  86 W5        30.04S
LAWRENCEVILLE* SUNNY     41  39  93 W3        29.98R
EMPORIA*       CLEAR     41  37  87 SW3       30.00R
$$

VAZ088>098-171100-
SOUTHEAST VIRGINIA

CITY           SKY/WX    TMP DP  RH WIND       PRES   REMARKS
NORFOLK        CLOUDY    45  43  93 W3        29.95R HAZE
VIRGINIA BEACH MOCLDY    45  43  93 W6        29.94R FOG
NORFOLK NAVAL  FOG       47  43  86 CALM      29.97R VSB 1/4
WEST POINT*    CLOUDY    45  43  93 NW3       29.97R VSB 1/2
SALUDA*        CLOUDY    45  44  94 NW6       29.94S
NEWPORT NEWS   PTCLDY    46  42  86 MISG      29.95S FOG
LANGLEY AFB    CLEAR     43  43  98 NW5       29.95S FOG
FORT EUSTIS    CLEAR     43 N/A N/A NW3       29.94R
WILLIAMSBURG*    N/A     43  43 100 NW3       29.96S VSB 1
HR EXEC AP*    MOSUNNY   39  37  93 W3        29.98R
FRANKLIN*      CLEAR     41 N/A N/A W5        29.97R
WAKEFIELD      CLEAR     41  39  93 CALM      29.96S
$$

VAZ020-022-025-037-045-171100-
WEST CENTRAL AND SOUTHWEST VIRGINIA

CITY           SKY/WX    TMP DP  RH WIND       PRES   REMARKS
STAUNTON*      MOCLDY    41  34  77 S3        29.96S
WAYNESBORO*    SUNNY     42  34  73 SW6       29.94S
HOT SPRINGS VA CLOUDY    35  35 100 W24G31    29.89R WCI  22
LYNCHBURG      MOCLDY    44  37  76 SW6       30.00R
DANVILLE       CLEAR     39  34  82 W8        30.04R
SOUTH BOSTON*  SUNNY     41  37  83 W10       30.01R
MARTINSVILLE   CLOUDY    31  31 100 CALM      30.06S
ROANOKE        CLOUDY    47  35  63 W16G24    30.02R
BLACKSBURG     CLOUDY    40  34  79 W15G25    30.04S
DUBLIN*        CLOUDY    42  38  83 W10       30.04S
MARION*        CLOUDY    40  37  87 W15G22    30.06S
HILLSVILLE*    CLOUDY    39  35  84 W9        30.02S
RICHLANDS*     CLOUDY    37  33  85 W7        30.07S
WISE*          CLOUDY    37  37 100 SW7       30.10S
ABINGDON*      CLOUDY    42  37  83 W7        30.10S
$$

MDZ021>025-VAZ099-100-171100-
SOUTHERN MARYLAND AND THE DELMARVA PENINSULA

CITY           SKY/WX    TMP DP  RH WIND       PRES   REMARKS
PATUXENT RIVER FOG       39  38  96 W3        29.94R VSB 1
BAY BRIDGE APT   N/A     41  41 100 W5        29.92S
LEONARDTOWN    CLOUDY    41  39  93 W7        29.94S
DOVER          CLEAR     42  42 100 W7        29.87S
GEORGETOWN     CLEAR     43  41  93 VRB5      29.91R FOG
EASTON         CLEAR     44  44 100 W6        29.95S FOG
CAMBRIDGE      CLEAR     43  41  93 W7        29.92R
SALISBURY      CLEAR     46  41  82 W7        29.92R
OCEAN CITY     CLEAR     44  42  93 NW7       29.90R FOG
WALLOPS ISLAND CLEAR     43  42  97 NW7       29.93R FOG
ACCOMACK*      MOCLDY    43  41  93 NW5       29.93S FOG
$$

NCZ012>017-030>032-171100-
NORTH CENTRAL AND EASTERN NORTH CAROLINA

CITY           SKY/WX    TMP DP  RH WIND       PRES   REMARKS
ROANOKE RAPIDS SUNNY     41  37  87 W5        29.99R
RALEIGH        CLEAR     45  37  73 W7        30.04R
ELIZABETH CITY FOG       47  44  90 W5        29.97R VSB 1/4
AHOSKIE*       CLEAR     40  39  97 CALM      29.99R FOG
EDENTON*       CLEAR     44  43  95 W6        29.98R FOG
CURRITUCK*     MOCLDY    46  45  93 W3        29.96R FOG
KILL DEVIL HLS CLOUDY    47  47  98 W5        29.95R FOG
MANTEO         CLOUDY    47  46  97 N6        29.97R
CAPE HATTERAS  CLEAR     49  47  93 NW10G16   29.97R
TARBORO*       SUNNY     39  39  97 W3        30.01S FOG
GOLDSBORO      CLEAR     42  42  99 CALM      30.01R
WASHINGTON     CLEAR     43  42  97 CALM      30.00S
GREENVILLE     CLEAR     45  43  93 W3        30.02S
NEW BERN       CLEAR     49  43  80 W6        30.02R
WILMINGTON     CLEAR     46  44  93 NW5       30.03R
$$

VAZ048-171100-
ELSEWHERE

CITY           SKY/WX    TMP DP  RH WIND       PRES   REMARKS
HARRISBURG PA  CLOUDY    40  39  97 SE3       29.88S FOG
BALTIMORE      CLEAR     39  37  92 W5        29.91S
ANNAPOLIS      CLEAR     42  39  89 NW3       29.92R
ANDREWS AFB    CLEAR     41  41  99 W9        29.92S
PHILADELPHIA   PTCLDY    42  39  89 SW8       29.88R
HENDERSON NC   CLEAR     43  36  76 W6        30.01R
GREENSBORO     PTCLDY    40  34  79 W7        30.05R
ROCKY MOUNT    CLEAR     44  39  82 W5        30.01R
$$

VAZ100-171100-
MARINE

STATION/POSITION TIME  TEMP    WIND        PRES    WAVE   SWELL
                       AIR SEA DIR/SP/G            HT/PER HT/PER
                 (UTC) (F)     (DEG/KT/KT) (MB)    (FT/S) (FT/S)
CAPE MAY NJ      1000   44 45  300/  6/ 10 1011.6R
LEWES DE         1000   44 44  280/  7/  8 1012.0S
15NM E FENWICK I 1000   46 47              1011.9R   3/ 5
OCEAN-CITY-INLET 1000   45 46  320/ 10/ 13 1012.0R
WACHAPREAGUE VA  1000   45 45  280/  2/  4 1013.5R
THOMAS POINT MD  1000   43 42  280/  5/  6 1014.5R
GOOSES REEF MD   1000   43      CALM  /  2 1012.5F
COVE POINT MD    1000   43     300/  6/  7 1013.3F
SOLOMONS ISLAND  1000      44                N/A
BISHOPS HEAD MD  1000   44 43  290/ 11/ 11 1012.9F
PINEY POINT MD   1000          320/ 11/ 12   N/A
POTOMAC MD       1000   45     320/ 12/ 16 1013.1S
CAMBRIDGE MD     1000   44 41  260/  5/  8 1013.0F
LEWISETTA VA     1000   45 43  290/  2/  3 1013.4F
RAPPAHANNOCK LGT 1000          300/ 10/ 11 1014.2S
STINGRAY PT      1000   45     320/  8/ 12 1014.3S
YORK RVR RNG VA  1000   45     320/  6/  7 1013.5S
YORKTOWN VA      1000   46 46  290/  9/ 10 1013.6S
JAMESTOWN VA     1000   44     330/  6/  8   N/A
DOMINION TERM VA 1000   46     300/  7/  9 1014.0F
KIPTOPEKE VA     1000      50  330/  9/ 10   N/A
CHES BAY BRIDGE  1000   46 46  250/  7/  8 1013.5R
CAPE HENRY VA    1000   46     270/  6/  8 1012.7R
CHESAPEAKE LGHT  0900   47     320/ 10/ 10 1013.6R
WILLOUBY STN VA  1000   46     290/  4/  5 1014.5R
S CRANEY ISL VA  1000          280/  2/  4 1014.0R
CAPE HENRY BUOY  1000      47                N/A     2/ 8
1ST LANDING BUOY 1000   46     270/  4/  6 1013.5R
CAPE CHARLES BUO 1000      47                N/A     2/10   2/10
64NM E OF VA BCH 1000   51 54  320/ 17/ 21 1012.7R   4/ 7   2/10
DUCK PIER NC     1000   47 48  300/  7/  9 1013.5S
44100 DUCK FRF   1000      51                N/A     2/ 7
44056 DUCK FRF   1000      48                N/A     2/11
OREGON INLET NC  1000   48 51  300/  8/ 11 1014.6R
HATTERAS NC      1000   50 54  300/ 15/ 16 1015.1R
DIAMOND SHLS NC  1000   56                 1013.9R   7/ 8
CAPE LOOKOUT NC  0900   54     300/ 11/ 14 1015.0R
$$



USA.gov is the U.S. government's official web portal to all federal, state and local government web resources and services.